X-SAT

Last updated on Sun Apr 12 2026 00:03:41 GMT+0000 (Coordinated Universal Time)

1 37389U 11015C 26101.52988406 .00000168 00000+0 89088-4 0 9991 2 37389 98.3474 81.7475 0013958 173.6694 186.4665 14.25186706778188
UTC large
Height (km)
Speed (km/s)
/
Latitude / Longitude
Inclination (degrees)
Orbital Period (minutes)
Azimuth
Elevation
Range (km)
Doppler Factor

Next 0 passes for location: London (51.5072 / 0.1276)

Sorry there are no passes over London.